Regional Weather Roundup
Issued by NWS Sioux Falls, SD

Home | Current Version | Previous Version | Text Only | Print | Product List | Glossary Off
Versions: 1 2 3 4 5 6 7 8 9 10 11 12 13 14 15 16 17 18 19 20 21 22 23 24 25 26 27 28 29 30 31 32 33 34 35 36 37 38 39 40 41 42 43 44 45 46 47 48 49 50

000
ASUS43 KFSD 222102
RWRFSD

WEATHER ROUNDUP FOR SE SOUTH DAKOTA/SW MINNESOTA/NW IOWA
NATIONAL WEATHER SERVICE SIOUX FALLS SD
400 PM CDT SUN APR 22 2018

NOTE: "FAIR" INDICATES FEW OR NO CLOUDS BELOW 12,000 FEET WITH NO
SIGNIFICANT WEATHER AND OR OBSTRUCTIONS TO VISIBILITY.


SDZ038>040-050-052>070-222200-
SOUTHEAST SOUTH DAKOTA

CITY           SKY/WX    TMP DP  RH WIND       PRES   REMARKS
CHAMBERLAIN    SUNNY     62  38  39 S9        30.18F
HURON          SUNNY     62  37  39 S18G25    30.19F
MITCHELL       SUNNY     61  38  42 SE10G28   30.20F
SIOUX FALLS    MOSUNNY   62  35  36 E13G25    30.21F
WINNER         FAIR      61  38  42 S15       30.17F
YANKTON        SUNNY     63  32  31 E10       30.19F
$$

MNZ071-072-080-081-089-090-097-098-222200-
SOUTHWEST MINNESOTA

CITY           SKY/WX    TMP DP  RH WIND       PRES   REMARKS
FAIRMONT       SUNNY     49  36  61 NE9       30.28F
JACKSON        SUNNY     48  36  61 E7        30.28F
LUVERNE        SUNNY     57  34  41 E13       30.24F
MARSHALL       SUNNY     54  38  54 SE16      30.26F
MONTEVIDEO     SUNNY     59  39  47 SW13G18   30.26S
PIPESTONE      SUNNY    N/A N/A N/A SE14      30.24F
REDWOOD FALLS  SUNNY     57  39  51 S13       30.27F
TRACY          SUNNY     53  42  65 SE10      30.26F
WORTHINGTON    SUNNY     53  37  54 E13       30.26F
$$

IAZ001>003-012>014-020>022-031-032-NEZ013-014-SDZ071-222200-
NORTHWEST IOWA

CITY           SKY/WX    TMP DP  RH WIND       PRES   REMARKS
CHEROKEE       SUNNY     61  39  44 NE14      30.23F
DENISON        MOSUNNY   64  30  27 E10       30.20F
ESTHERVILLE    SUNNY     47  38  71 NE8       30.27F
ORANGE CITY    SUNNY     61  39  44 E8G16     30.23F
SIOUX CITY     SUNNY     66  30  26 E9G18     30.18F
SPENCER        SUNNY     58  40  51 NE13      30.26F
$$

ABBREVIATIONS USED IN REMARKS
   TC - TEMPERATURE IN CELSIUS
  WCI - WIND CHILL INDEX
   HX - HEAT INDEX
  VSB - VISIBILITY





USA.gov is the U.S. government's official web portal to all federal, state and local government web resources and services.